This is the latest recevied weather packets stored in our database for station/object HB9EKJ-13. If no packets are shown the sender has not sent any weather packets the latest 10 day(s).
| Time | Temp. | Humidity | Pressure | Rain* | Wind** | Luminosity | Snow |
|---|---|---|---|---|---|---|---|
| 1777533127 | 16.67° C | 19% | 1024.4 hPa | 0 mm | - | - | - |
| 1777532527 | 15.56° C | 24% | 1024.4 hPa | 0 mm | - | - | - |
| 1777532227 | 15.56° C | 27% | 1024.4 hPa | 0 mm | - | - | - |
| 1777531326 | 12.78° C | 36% | 1024.4 hPa | 0 mm | - | - | - |
| 1777530427 | 8.33° C | 37% | 1024.4 hPa | 0 mm | - | - | - |
| 1777529827 | 8.33° C | 37% | 1024.4 hPa | 0 mm | - | - | - |
| 1777529527 | 8.33° C | 37% | 1024.4 hPa | 0 mm | - | - | - |
| 1777528927 | 8.89° C | 38% | 1024.4 hPa | 0 mm | - | - | - |
| 1777528627 | 8.33° C | 38% | 1024.4 hPa | 0 mm | - | - | - |
| 1777528027 | 8.33° C | 38% | 1024.4 hPa | 0 mm | - | - | - |
| 1777527127 | 7.78° C | 39% | 1023.3 hPa | 0 mm | - | - | - |
| 1777525328 | 6.67° C | 38% | 1023.3 hPa | 0 mm | - | - | - |
| 1777524426 | 6.67° C | 38% | 1023.3 hPa | 0 mm | - | - | - |
| 1777522627 | 6.11° C | 38% | 1023.3 hPa | 0 mm | - | - | - |
| 1777522027 | 6.11° C | 38% | 1023.3 hPa | 0 mm | - | - | - |
| 1777521728 | 6.11° C | 38% | 1023.3 hPa | 0 mm | - | - | - |
| 1777521127 | 6.11° C | 38% | 1023.3 hPa | 0 mm | - | - | - |
| 1777520827 | 6.11° C | 38% | 1023.3 hPa | 0 mm | - | - | - |
| 1777520227 | 6.11° C | 38% | 1023.3 hPa | 0 mm | - | - | - |
| 1777519328 | 6.67° C | 38% | 1023.3 hPa | 0 mm | - | - | - |
| 1777519027 | 6.67° C | 38% | 1023.3 hPa | 0 mm | - | - | - |
| 1777518425 | 6.67° C | 38% | 1023.3 hPa | 0 mm | - | - | - |
| 1777518126 | 6.67° C | 38% | 1023.3 hPa | 0 mm | - | - | - |
| 1777517528 | 6.67° C | 37% | 1023.3 hPa | 0 mm | - | - | - |
| 1777517227 | 6.67° C | 37% | 1023.3 hPa | 0 mm | - | - | - |
* Rain latest hour (hover to see other rain measurements)
** Current wind speed in m/s (hover to see current wind gust speed)